Regional Weather Roundup
Issued by NWS Northern Indiana

Home | Current Version | Previous Version | Graphics & Text | Print | Product List | Glossary On
Versions: 1 2 3 4 5 6 7 8 9 10 11 12 13 14 15 16 17 18 19 20 21 22 23 24 25 26 27 28 29 30 31 32 33 34 35 36 37 38 39 40 41 42 43 44 45 46 47 48 49 50
433
ASUS43 KIWX 212310
RWRIWX

KIWX WEATHER ROUNDUP
NATIONAL WEATHER SERVICE NORTHERN INDIANA
600 PM EST WED FEB 21 2018

NOTE: "FAIR" INDICATES FEW OR NO CLOUDS BELOW 12,000 FEET WITH NO
SIGNIFICANT WEATHER AND/OR OBSTRUCTIONS TO VISIBILITY.

* THESE STATIONS ARE NOT UNDER NWS QUALITY CONTROL. THEY ALSO MAY NOT
  REPORT WEATHER SUCH AS PRECIPITATION OR FOG.

INZ001>027-220000-
NORTHERN INDIANA

CITY           SKY/WX    TMP DP  RH WIND       PRES   REMARKS
GARY*          CLOUDY    30  25  80 N14       30.60R WCI  20
VALPARAISO     FAIR      31  25  78 NE9       30.57R WCI  23
MICHIGAN CITY* CLOUDY    30  27  86 N8        30.60R WCI  23
LAPORTE*       FAIR      30  26  84 N10       30.58R WCI  21
SOUTH BEND     MOCLDY    30  25  81 N9        30.57R WCI  22
ELKHART*       CLOUDY    32  28  86 N7        30.57R WCI  26
GOSHEN         CLOUDY    34  29  82 MISG      30.55R
MONTICELLO*    CLOUDY    33  29  85 NE9       30.54R WCI  26
LOGANSPORT*    CLOUDY    34  30  86 NE9       30.54R WCI  26
ROCHESTER*     CLOUDY    36  32  87 N8        30.55R
WARSAW*        CLOUDY    34  30  86 NE6       30.54R WCI  29
AUBURN*        MOCLDY    36  32  87 N9        30.55R
FORT WAYNE     CLOUDY    38  33  82 NE9       30.53R
HUNTINGTON*    CLOUDY    36  32  87 NE9       30.53R
PERU/GRISSOM   CLOUDY    35  35  99 NE9       30.52R WCI  28
MARION*        CLOUDY    36  32  86 N10       30.53R FOG

$$
INZ028>050-220000-
CENTRAL INDIANA

CITY           SKY/WX    TMP DP  RH WIND       PRES   REMARKS
LAFAYETTE      CLOUDY    34  29  82 NE12      30.53R WCI  25
KOKOMO*        CLOUDY    36  32  85 NE12      30.53R
MUNCIE*        CLOUDY    40  34  79 NE12      30.50R
INDIANAPOLIS   CLOUDY    37  34  89 NE12      30.49R

$$
MIZ043>046-050>051-056>058-064>065-071>073-077>080-220000-
SOUTHWEST LOWER MICHIGAN

CITY           SKY/WX    TMP DP  RH WIND       PRES   REMARKS
BATTLE CREEK   MOCLDY    34  27  75 N6        30.56R WCI  29
BENTON HARBOR  FAIR      30  23  75 VRB7      30.59R WCI  23
COLDWATER*     CLOUDY    35  32  88 NE7       30.55R WCI  29
HILLSDALE*     CLOUDY    36  30  80 N5        30.53R
HOLLAND        FAIR      31  23  72 N6        30.59R WCI  25
GRAND RAPIDS   CLOUDY    34  25  69 NW7       30.57R WCI  28
KALAMAZOO      CLOUDY    35  28  75 N6        30.56R WCI  30
STURGIS*       CLOUDY    35  30  83 N6        30.54R WCI  30
THREE RIVERS*  MOCLDY    35  29  80 NE6       30.56R WCI  30

$$
OHZ001>008-015>018-024>025-220000-
NORTHWEST OHIO

CITY           SKY/WX    TMP DP  RH WIND       PRES   REMARKS
WAUSEON*       CLOUDY    39  39 100 NE8       30.53R
DEFIANCE       CLOUDY    40  33  76 NE10      30.54R
FINDLAY        CLOUDY    40  34  79 NE16      30.51R
TOLEDO EXPRESS MOCLDY    40  35  83 N7        30.53R
TOLEDO METCALF CLOUDY    37  33  85 E10       30.56R
LIMA           CLOUDY    39  37  92 NE10      30.50R

$$
AND FOR LAKE MICHIGAN COASTAL AND OPEN LAKE BUOY OBSERVATIONS

STATION/POSITION TEMP    WIND        PRES    VSBY  WAVE
                 AIR SEA DIR/SP/G                  HT/PER
                 (F)     (DEG/KT/KT) (MB)    (MI)  (FT/S)
CALUMET HARBOR    29      10/  9/ 15 1035.4R
MICHIGAN CITY     29      10/ 18/ 19   N/A
BURNS HARBOR      30      30/ 16/ 18 1035.9R
SAINT JOSEPH      30      30/  7/ 14 1036.6

$$
&&




USA.gov is the U.S. government's official web portal to all federal, state and local government web resources and services.